#timestamp,LO_Frequency,Hit,StdDev 
1605171615.8,286047000.8,N
1605171635.7,286047001.2,N
1605171655.5,286046998.3,N
1605171675.3,286046998.7,N
1605171695.2,286046998.3,N
1605171715.0,286046998.9,N
1605171715.9,286046998.9,N
1605171735.8,286046998.6,N
1605171755.6,286047000.7,N
1605171775.4,286047000.8,N
1605171795.3,286047000.6,N
1605171815.1,286047000.7,N
1605171835.9,286046998.9,N
1605171855.7,286046999.3,N
1605171875.5,286046998.4,N
1605171895.4,286046998.3,N
1605171915.2,286046999.0,N
1605171935.0,286047000.7,N
1605171936.0,286047000.7,N
1605171955.8,286046998.8,N
1605171975.6,286047000.7,N
1605171995.5,286047001.2,N
1605172015.3,286047001.0,N
1605172035.1,286046998.9,N
1605172055.9,286046998.2,N
1605172075.7,286046998.2,N
1605172095.6,286046998.6,N
1605172115.4,286046998.3,N
1605172135.2,286046998.4,N
1605172155.1,286046998.9,N
1605172156.0,286046998.9,N
1605172175.8,286046999.0,N
1605172195.6,286046998.7,N
1605172215.5,286046998.8,N
1605172235.3,286046998.8,N
1605172255.2,286046998.9,N
1605172275.0,286046998.9,N
1605172275.9,286046998.9,N
1605172295.7,286046998.9,N
1605172315.6,286047001.2,N
1605172335.4,286046998.3,N
1605172355.3,286046998.7,N
1605172375.1,286046998.7,N
1605172376.0,286046998.7,N
1605172395.8,286046999.2,N
1605172415.7,286046996.6,Y
1605172435.5,286046998.1,P
1605172455.4,286046999.0,N
1605172475.2,286046998.6,P
1605172495.0,286046998.8,Y
1605172495.9,286046998.8,P
1605172515.8,286047000.6,P
1605172535.6,286047000.3,N
1605172555.5,286047000.2,N
1605172575.3,286047000.4,N
1605172595.1,286047000.6,N
1605172615.9,286047000.3,N
1605172635.7,286047001.0,N
1605172655.5,286047000.5,N
1605172675.4,286047001.2,N
1605172695.2,286047000.5,N
1605172715.1,286047000.7,N
1605172716.0,286047000.7,N
1605172735.8,286047000.8,N
1605172755.6,286047000.8,N
1605172775.5,286047000.9,N
1605172795.3,286046999.9,N
1605172815.1,286046999.9,N
1605172835.9,286047001.2,N
1605172855.7,286047000.9,N
1605172875.6,286047001.2,N
1605172895.4,286046998.2,N
1605172915.2,286047001.1,N
1605172935.1,286046998.1,N
1605172936.0,286046998.1,N
1605172955.8,286047000.7,N
1605172975.7,286047001.0,N
1605172995.5,286047000.7,N
1605173015.3,286047000.8,N
1605173035.2,286047001.0,N
1605173055.0,286046998.1,N
1605173055.9,286046998.1,N
1605173075.7,286047001.1,N
1605173095.6,286047001.2,N
1605173115.4,286047000.7,N
1605173135.3,286046998.2,N
1605173155.1,286046998.1,N
1605173156.0,286046998.1,N
1605173175.8,286047001.1,N
1605173195.7,286047000.8,N
1605173215.5,286046998.1,N
1605173235.4,286046998.2,N
1605173255.2,286047001.1,N
1605173275.0,286046998.3,N
1605173275.9,286046998.3,N
1605173295.8,286047001.1,N
1605173315.6,286047001.2,N
1605173335.4,286046998.6,N
1605173355.3,286046998.2,N
1605173375.1,286046998.1,N
1605173395.9,286047001.1,N
1605173415.7,286046998.4,N
1605173435.5,286047001.2,N
1605173455.4,286046998.2,N
1605173475.2,286046998.2,N
1605173495.1,286047000.8,N
1605173496.0,286047000.8,N
1605173515.8,286046998.3,N
1605173535.6,286046998.8,N
1605173555.5,286046998.6,N
1605173575.3,286046998.3,N
1605173595.1,286046998.8,N
1605173615.9,286046999.3,N
1605173635.7,286046998.1,N
1605173655.6,286046998.6,N
1605173675.4,286046998.3,N
1605173695.2,286046998.6,N
1605173715.1,286046998.4,N
1605173716.0,286046998.4,N
1605173735.8,286046998.2,N
1605173755.7,286046998.4,N
1605173775.5,286046998.5,N
1605173795.3,286046998.1,N
1605173815.2,286046998.3,N
1605173835.0,286046998.4,N
1605173835.9,286046998.4,N
1605173855.7,286046998.7,N
1605173875.6,286046998.3,N
1605173895.4,286046998.2,N
1605173915.3,286046998.2,N
1605173935.1,286046999.4,N
1605173955.8,286046998.2,N
1605173975.7,286046999.1,N
1605173995.5,286046998.9,N
1605174015.4,286046999.1,N
1605174035.2,286046999.1,N
1605174055.0,286046999.3,N
1605174055.9,286046999.3,N
1605174075.8,286046999.4,N
1605174095.6,286046999.2,N
1605174115.5,286046998.8,N
1605174135.3,286046998.7,Y
1605174155.1,286047002.3,P
1605174175.9,286047002.5,N
1605174195.7,286047002.1,N
1605174215.5,286047002.5,N
1605174235.4,286047002.7,N
1605174255.2,286047002.8,N
1605174275.1,286047002.0,N
1605174276.0,286047002.0,N
1605174295.8,286046999.8,N
1605174315.6,286047000.2,N
1605174335.5,286047000.1,N
1605174355.3,286047002.4,N
1605174375.2,286047002.3,N
1605174395.9,286047001.4,N
1605174415.7,286047002.6,N
1605174435.6,286047002.3,N
1605174455.4,286047002.5,N
1605174475.2,286047002.3,N
1605174495.1,286047002.0,N
1605174496.0,286047002.0,N
1605174515.8,286047002.0,N
1605174535.7,286047002.2,N
1605174555.5,286047001.5,N
1605174575.3,286047001.7,N
1605174595.2,286047004.2,Y
1605174615.0,286047000.4,P
1605174615.9,286047000.4,N
1605174635.8,286047000.8,N
1605174655.6,286047001.0,N
1605174675.4,286047000.0,N
1605174695.3,286047000.7,N
1605174715.1,286047000.5,N
1605174735.9,286047000.8,N
1605174755.7,286047000.8,N
1605174775.5,286047000.9,N
1605174795.4,286047000.8,N
1605174815.2,286046998.5,Y
1605174835.0,286046998.8,P
1605174835.9,286046998.8,N
1605174855.8,286046999.3,N
1605174875.6,286046998.4,N
1605174895.5,286046999.0,N
1605174915.3,286046999.4,N
1605174935.1,286046999.4,N
1605174955.9,286046999.1,N
1605174975.7,286046999.0,N
1605174995.6,286046999.1,N
1605175015.4,286046999.4,N
1605175035.2,286046999.0,N
1605175055.1,286046998.7,N
1605175056.0,286046998.7,N
1605175075.8,286046998.6,N
1605175095.6,286046998.6,N
1605175115.5,286046998.4,Y
1605175135.3,286046998.3,P
1605175155.2,286046998.7,P
1605175175.9,286046998.6,P
1605175195.7,286046998.3,Y
